Location: Colle San Luigi
(43.5500°N, 13.4167°E)
Time: 02:59:20
(UTC+00:00)

Cosmos 1703 - Pass Details

Date: 09 April 2020
Orbit: 524 x 540 km, 82.5° (Epoch: 29 May)

Event Time Altitude Azimuth Distance (km) Brightness Sun altitude
Rises 19:01:11 0° 345° (NNW) 2,705 7.5 -14.2°
Reaches altitude 10° 19:03:24 10° 339° (NNW) 1,810 6.6 -14.6°
Maximum altitude 19:07:13 45° 267° (W) 740 4.4 -15.2°
Drops below altitude 10° 19:11:00 10° 194° (SSW) 1,798 5.8 -15.8°
Enters shadow 19:13:08 - 188° (S) 2,663 6.6 -16.1°
